Location: Follega
(52.8850°N, 5.7362°E)
Time: 22:32:36
(UTC+00:00)

STARLINK-1236 - Pass Details

Date: 06 October 2020
Orbit: 548 x 551 km, 53.0° (Epoch: 26 October)

Event Time Altitude Azimuth Distance (km) Brightness Sun altitude
Exits shadow 02:51:18 12° 139° (SE) 1,726 6.3 -26.5°
Drops below altitude 10° 02:51:33 10° 137° (SE) 1,822 6.4 -26.5°
Sets 02:53:51 0° 131° (SE) 2,713 7.4 -26.2°
